[Date Prev][Date Next][Thread Prev][Thread Next] - [Date Index][Thread Index][Author Index]

2 Line ISS Keps 4-22



ISS
1 25544U 98067A   05112.30861634  .00016856  00000-0  13367-3 0  3027
2 25544 051.6457 186.9777 0007656 039.4505 072.2400 15.71399595366896
----
Via the sarex mailing list at AMSAT.ORG courtesy of AMSAT-NA.
To unsubscribe, send "unsubscribe sarex" to Majordomo@amsat.org



AMSAT Top AMSAT Home